Current weather by "City, St" or "zip code"  
 

Current Conditions: MONUMENT/ELBERT

Clear


39.2 F

Last Updated on May 26 2024, 01:35 AM MDT
Humidity: 87%
Wind Speed: 9.2 mph
Barometer 29.90 in
Dewpoint: 35.6 F
Visibility: 10.00 mi
Precip: --
Heat Index: NA
Wind Chill: 33.1 F
Current conditions at:

MONUMENT/ELBERT (KMNH)

Lat: 39.22 Lon: 104.63

active severe weather and emergency alerts image image weather storm and storm spotter reports image weather observation monitoring service image
Active
Alerts
Storm Reports Obs
Monitoring

Sign-up For Email & Text Message Weather Alert Notification Services



Advertise Here

Observation History for MONUMENT/ELBERT


Time Wind
(mph)
Vis
(mi)
Weather Precip (in) Temperature (F) Relative
Humidity
Wind
Chill
(F)
Heat
Index
(F)
Pressure
Air Dwpt altimeter
(in)
sea level
(mb)
Rmks
01:35 AM MDT 9.2 10.00 Clear -- 39.2 35.6 87% 33.1 NA 29.90 1012.5
12:55 AM MDT W 4.7 10.00 Clear -- 39.2 35.6 87% 35.8 NA 29.91 1012.9
12:35 AM MDT 8.1 10.00 Clear -- 37.4 35.6 93% 31.5 NA 29.91 1012.9
11:35 PM MDT 4.7 10.00 Partly Cloudy -- 41.0 35.6 81% 37.9 NA 29.90 1012.5
10:55 PM MDT SW 6.9 10.00 Clear -- NULL 35.6 % NA NA 29.91 1012.9
10:35 PM MDT 0.0 10.00 Clear -- 44.6 37.4 76% NA NA 29.91 1012.9
10:15 PM MDT 0.0 10.00 Clear -- 44.6 37.4 76% NA NA 29.91 1012.9
09:55 PM MDT 0.0 10.00 Clear -- 44.6 37.4 76% NA NA 29.91 1012.9
09:35 PM MDT 8.1 10.00 Partly Cloudy -- 46.4 37.4 71% 42.4 NA 29.91 1012.9
08:55 PM MDT NE 8.1 10.00 Mostly Cloudy -- 48.2 37.4 66% 44.6 NA 29.88 1011.9
08:35 PM MDT NE 8.1 10.00 Cloudy -- 50.0 37.4 62% NA NA 29.87 1011.5
08:15 PM MDT NE 6.9 10.00 Mostly Cloudy -- 50.0 37.4 62% NA NA 29.85 1010.8
07:55 PM MDT NE 5.8 10.00 Partly Cloudy -- NULL 37.4 % NA NA 29.85 1010.8
07:35 PM MDT NE 6.9 10.00 Mostly Cloudy -- NULL 35.6 % NA NA 29.83 1010.2
07:15 PM MDT NE 10.3 10.00 Mostly Cloudy -- NULL 35.6 % NA NA 29.83 1010.2
06:55 PM MDT 10.00 Partly Cloudy -- 59.0 35.6 41% NA NA 29.82 1009.8
05:35 PM MDT 15.0 10.00 Partly Cloudy -- NULL 33.8 % NA NA 29.79 1008.8
05:15 PM MDT 20.8 10.00 Partly Cloudy and Windy -- 62.6 33.8 34% NA NA 29.78 1008.5
04:55 PM MDT 19.7 10.00 Partly Cloudy and Windy -- 64.4 32.0 30% NA NA 29.78 1008.5
04:35 PM MDT 13.9 10.00 Partly Cloudy -- 64.4 32.0 30% NA NA 29.76 1007.8
03:55 PM MDT 10.00 Partly Cloudy -- 69.8 24.8 18% NA NA 29.76 1007.8
03:35 PM MDT 10.00 Clear -- 68.0 21.2 17% NA NA 29.75 1007.5
03:15 PM MDT 10.00 NULL -- NULL % NA NA M
02:55 PM MDT 10.00 Partly Cloudy -- 68.0 23.0 18% NA NA 29.75 1007.5

Regional Weather Observation


MONUMENT/ELBERT (KMNH)

Clear
39.2 F

BUCKLEY ANGB/DEN (KBKF)

Mostly Cloudy
51.1 F

DENVER AIR SPACE (KCFO)

Partly Cloudy
51.3 F

DENVER (DIA) (KDEN)

Mostly Cloudy
55.0 F

BROOMFIELD/JEFFC (KBJC)

Clear
55.4 F

WILKERSON PASS (K4BM)

Cloudy
32.0 F

Advertise Here


Advertise Here